Location: Croagnes
(43.9363°N, 5.3265°E)
Time: 21:59:16
(UTC+00:00)

Meteor 1-16 Rocket - Pass Details

Date: 29 September 2020
Orbit: 790 x 908 km, 81.2° (Epoch: 22 October)

Event Time Altitude Azimuth Distance (km) Brightness Sun altitude
Exits shadow 21:35:47 23° 319° (NW) 1,825 6.4 -41.9°
Drops below altitude 10° 21:38:56 10° 348° (NNW) 2,571 7.2 -42.3°
Sets 21:41:48 0° 1° (N) 3,499 8.0 -42.6°
